Cloud_Cover
5 26 100 90 18 26 12 20 98 63 16 5 5 5 5 0 4 61 8 6 100 6 23 61 51 15 10 97 97 89 17 5 5 100 41 100 99 100 100 100 100 99 80
3 16 77 48 14 20 3 5 21 11 5 7 10 5 5 4 0 5 34 5 8 5 12 27 5 40 25 100 100 100 97 5 5 97 100 100 100 100 100 100 100 100 100
1 0 0 5 60 7 0 2 4 7 58 60 13 7 5 36 35 5 0 2 5 54 46 88 8 72 5 6 54 89 92 5 34 100 48 100 100 100 100 100 100 100 100
34 6 2 1 55 62 89 91 100 99 100 100 100 100 15 5 24 58 28 55 24 37 38 12 40 100 26 80 56 12 92 5 5 19 78 100 100 100 100 100 100 100 100
8 11 5 5 5 58 19 57 100 100 100 100 100 100 100 45 6 75 100 100 84 45 91 53 74 82 99 81 54 31 18 5 31 17 99 91 100 100 100 100 100 100 100
82 3 4 5 5 5 9 5 72 100 100 83 25 100 100 100 74 5 50 90 89 100 100 100 100 100 100 100 100 90 42 79 99 99 15 94 100 100 100 100 100 100 100
89 4 1 8 14 5 21 52 30 99 100 100 100 100 100 100 100 100 40 87 96 65 100 100 100 100 92 97 100 100 69 79 98 100 95 11 34 73 100 100 100 100 100
5 7 6 4 15 40 48 98 47 100 100 100 100 100 100 100 100 100 100 81 100 100 100 100 90 93 87 44 15 93 92 88 96 36 31 46 94 97 85 96 100 100 100
58 75 79 43 28 22 83 100 74 100 100 100 100 100 100 100 100 100 100 100 100 100 100 100 100 98 22 35 97 48 81 28 27 60 66 99 91 67 99 100 100 100 100
100 98 94 100 69 28 24 45 76 98 100 100 100 100 100 100 100 100 100 100 100 100 100 100 66 30 68 100 54 86 19 34 60 48 56 82 100 93 100 100 100 100 100
12 10 14 89 100 98 100 100 100 99 78 100 100 78 100 100 100 100 100 100 100 100 100 100 100 100 100 94 48 66 98 94 100 98 100 99 97 100 100 100 100 100 100
100 100 93 92 100 100 100 100 100 100 100 100 100 74 100 100 100 100 100 100 100 100 100 100 100 100 100 100 100 100 100 97 86 100 100 100 100 99 99 100 100 100 100
73 100 100 100 98 100 100 100 100 100 100 100 100 100 100 100 100 100 100 100 100 100 100 100 100 100 100 100 100 100 100 100 100 100 100 100 100 100 86 83 72 100 60
81 100 100 89 92 100 100 100 100 100 100 100 100 100 100 100 100 100 100 100 100 100 100 100 100 100 100 100 100 100 100 100 100 100 100 100 100 100 100 100 94 49 90
93 100 100 100 99 100 100 100 100 100 100 100 100 100 100 100 99 100 100 100 100 100 100 100 100 100 100 100 100 100 100 100 100 100 100 100 100 100 100 97 100 90 85
32 54 82 100 100 97 100 100 100 100 100 100 100 100 100 100 100 100 100 100 100 100 100 100 100 100 100 100 100 100 100 100 100 100 100 100 100 100 100 100 100 100 100
6 28 33 34 30 30 99 100 100 100 100 100 100 100 100 100 100 100 100 100 100 100 100 100 100 100 100 100 100 100 100 100 100 100 100 98 92 100 100 100 100 100 100
17 98 52 15 45 6 81 98 100 100 100 100 100 100 100 100 100 100 100 100 100 100 100 100 100 100 100 100 100 100 100 100 100 100 100 100 100 100 100 100 100 100 100
100 46 55 22 50 97 100 86 52 100 100 100 100 100 100 100 100 100 100 100 100 100 100 100 100 100 100 100 100 100 100 100 100 100 100 100 100 100 100 100 100 100 100
97 85 93 61 3 1 46 80 100 84 100 100 100 100 100 100 100 100 100 100 100 100 100 100 100 100 100 100 100 100 100 100 100 100 100 100 100 100 100 100 100 100 100
91 100 100 76 94 30 25 100 100 100 100 100 100 100 100 100 100 99 100 100 100 100 100 100 100 100 100 100 100 100 100 100 100 100 100 100 100 100 100 100 100 100 100
94 96 100 100 100 65 40 80 98 100 100 100 100 100 100 100 100 100 100 100 100 100 100 100 100 100 100 100 100 100 100 100 100 100 100 100 100 100 100 100 100 100 85
98 78 100 100 69 67 14 25 82 84 59 100 98 81 96 83 100 100 78 88 98 100 100 100 100 100 100 100 100 100 100 100 100 100 100 100 100 100 100 100 44 1 0
100 100 100 100 100 100 100 100 100 100 100 100 100 100 100 100 100 100 100 100 99 100 100 100 100 100 100 100 100 100 100 100 100 100 100 100 100 97 23 0 0 0 0
95 96 100 88 90 84 100 100 100 100 100 99 89 55 79 100 100 100 100 100 98 54 5 5 0 2 0 0 0 3 4 5 6 1 0 0 2 1 0 4 3 5 25
97 100 100 100 100 100 39 82 98 100 100 99 73 39 9 6 5 5 45 18 5 4 1 1 0 0 0 0 0 0 0 0 0 0 3 5 5 5 5 5 22 70 29